sat.trackr.live / text

‹ back to catalog

STARLINK-6342

NORAD 56770 · 2023-078D

PAYLOAD ACTIVE UNKNOWN

§ Identity

Operator
Country
US
Launch date
2023-05-31
Launch site
AFWTR
Launch vehicle
Mass (kg)
RCS (m²)

Purposes: comms

External: N2YO · Heavens-Above · Gunter

§ Orbital elements

Epoch: 2026-05-25T02:34:14.769696Z

Period
96.11 min
Inclination
69.9984°
Eccentricity
0.0003710
Mean motion
14.98331345 rev/d
Perigee alt
569.5 km
Apogee alt
574.6 km
Semi-major
6,950.2 km
B*
1.1155e-5
RAAN
171.7833°
Arg perigee
267.5345°
Mean anomaly
92.5390°
Rev number
16,363

§ Raw data

STARLINK-63421 56770U 23078D   26145.10711539  .00000040  00000+0  11155-4 0  99902 56770  69.9984 171.7833 0003710 267.5345  92.5390 14.98331345163633

JSON: /api/v1/satellites/56770 · /tle

For live sub-satellite position, see the globe view (requires WebGL).

§ Visibility from observer

Set your observer location to see the next 7 days of passes ≥ 10°. The values pass through the URL so the page stays shareable.

No JS? Fill the form by hand. The geolocation button needs JavaScript.